Location: Newark
(36.9614°N, 120.0608°W)
Time: 22:18:26
(UTC+00:00)

LightSail 2 - Visible Passes

Search period start: 22 September 2019 00:00
Search period end: 02 October 2019 00:00
Orbit: 701 x 730 km, 24.0° (Epoch: 21 September)

Date Brightness Start Highest point End Pass type
(mag) Time Alt. Az. Time Alt. Az. Time Alt. Az.
22 Sep 7.3 12:03:22 12° S 12:04:32 13° SSE 12:06:47 10° SE visible
23 Sep 7.1 12:48:58 10° SW 12:52:18 18° S 12:55:37 10° SE visible
24 Sep 7.0 11:55:03 16° S 11:55:14 16° S 11:58:19 10° SE visible
25 Sep 6.9 12:40:22 13° SW 12:43:00 18° S 12:46:28 10° SE visible
26 Sep 7.0 11:46:40 18° SSE 11:46:40 18° SSE 11:49:19 10° SE visible
26 Sep 7.1 13:27:40 10° SW 13:30:45 16° S 13:33:50 10° SSE visible
27 Sep 6.9 12:31:59 15° SSW 12:33:39 18° S 12:36:58 10° SE visible
28 Sep 7.2 11:38:17 16° SSE 11:38:17 16° SSE 11:39:59 10° SE visible
28 Sep 7.2 13:19:07 10° SW 13:21:22 13° SSW 13:23:36 10° SSE visible
29 Sep 7.0 12:23:38 15° SSW 12:24:15 15° S 12:27:06 10° SSE visible
30 Sep 7.6 11:29:59 11° SSE 11:29:59 11° SSE 11:30:19 10° SSE visible
01 Oct 7.3 12:15:23 11° S 12:15:23 11° S 12:16:23 10° S visible
